Phoenix, AZ

2:01 PM MST on September 19, 2017 (GMT -0700)
Phoenix Sky Harbor International

Weather History for KPHX - August, 2014

Change the Weather History Date:

Friday, August 15, 2014

  Actual Average Record
Temperature  
Mean Temperature 94 °F 94 °F  
Max Temperature 104 °F 105 °F 115 °F (2015)
Min Temperature 83 °F 83 °F 66 °F (1949)
Degree Days  
Heating Degree Days 0 0  
Month to date heating degree days 0 0  
Since 1 June heating degree days 0 0  
Since 1 July heating degree days 0 0  
Cooling Degree Days 29 29  
Month to date cooling degree days 413 435  
Year to date cooling degree days 3327 3019  
Since 1 June cooling degree days 2252 2133  
Growing Degree Days 43 (Base 50)    
Moisture  
Dew Point 62 °F    
Average Humidity 39    
Maximum Humidity 55    
Minimum Humidity 23    
Precipitation  
Precipitation 0.00 in 0.03 in 1.84 in (1943)
Month to date precipitation 0.55 0.51  
Year to date precipitation 1.60 4.79  
Snow  
Snow 0.00 in - - ()
Month to date snowfall 0.0  
Year to date snowfall 0.0  
Since 1 July snowfall 0.0  
Snow Depth 0.00 in    
Sea Level Pressure  
Sea Level Pressure 29.85 in    
Wind  
Wind Speed 6 mph (SSW)    
Max Wind Speed 18 mph    
Max Gust Speed 24 mph    
Visibility 10 miles    
Events      
T = Trace of Precipitation, MM = Missing Value Source: NWS Daily Summary

Daily Weather History Graph

Daily Weather History Graph

Search for Another Location

Airport or City:

Trip Planner

Search our weather history database for the weather conditions in past years. The results will help you decide how hot, cold, wet, or windy it might be!

Date:

Astronomy

Aug. 15, 2014 Rise Set
Actual Time 5:50 AM MST 7:13 PM MST
Civil Twilight 5:24 AM MST 7:40 PM MST
Nautical Twilight 4:52 AM MST 8:11 PM MST
Astronomical Twilight 4:20 AM MST 8:43 PM MST
Moon 10:39 PM MST (8/15) 11:18 AM MST (8/15)
Length of Visible Light 14h 15m
Length of Day
13h 23m
Waning Gibbous, 68% of the Moon is Illuminated
Aug 15
Waning Gibbous
Aug 17
Last Quarter
Aug 25
New
Sep 2
First Quarter
Sep 8
Full

Hourly Weather History & Observations

Time (MST) Temp. Heat Index Dew Point Humidity Pressure Visibility Wind Dir Wind Speed Gust Speed Precip Events Conditions
12:51 AM 84.9 °F 86.6 °F 64.9 °F 51% 29.85 in 10.0 mi ESE 6.9 mph - N/A   Scattered Clouds
1:51 AM 84.9 °F 86.6 °F 64.9 °F 51% 29.85 in 10.0 mi SE 4.6 mph - N/A   Scattered Clouds
2:51 AM 84.9 °F 86.6 °F 64.9 °F 51% 29.85 in 10.0 mi SE 4.6 mph - N/A   Partly Cloudy
3:51 AM 84.0 °F 85.8 °F 64.9 °F 53% 29.86 in 10.0 mi SE 5.8 mph - N/A   Partly Cloudy
4:51 AM 84.0 °F 85.8 °F 64.9 °F 53% 29.87 in 10.0 mi ESE 6.9 mph - N/A   Partly Cloudy
5:51 AM 82.9 °F 84.6 °F 64.9 °F 54% 29.88 in 10.0 mi East 6.9 mph - N/A   Partly Cloudy
6:51 AM 84.2 °F 85.6 °F 64.4 °F 51% 29.96 in 10.0 mi Calm Calm - N/A   Partly Cloudy
7:51 AM 87.8 °F 90.4 °F 66.2 °F 49% 29.97 in 10.0 mi East 3.5 mph - N/A   Partly Cloudy
8:51 AM 90.0 °F 92.4 °F 66.0 °F 45% 29.91 in 10.0 mi Calm Calm - N/A   Partly Cloudy
9:51 AM 93.0 °F 94.2 °F 63.0 °F 37% 29.91 in 10.0 mi Variable 6.9 mph - N/A   Partly Cloudy
10:51 AM 95.0 °F 96.0 °F 62.6 °F 34% 29.96 in 10.0 mi Calm Calm - N/A   Partly Cloudy
11:51 AM 97.0 °F 99.3 °F 64.0 °F 34% 29.88 in 10.0 mi SW 5.8 mph - N/A   Partly Cloudy
12:51 PM 99.0 °F 100.5 °F 63.0 °F 30% 29.86 in 10.0 mi SW 9.2 mph - N/A   Partly Cloudy
1:51 PM 100.4 °F 102.4 °F 62.6 °F 29% 29.89 in 10.0 mi WSW 4.6 mph - N/A   Partly Cloudy
2:51 PM 102.9 °F 103.6 °F 60.1 °F 24% 29.80 in 10.0 mi South 10.4 mph - N/A   Partly Cloudy
3:51 PM 102.0 °F 101.1 °F 57.0 °F 22% 29.78 in 10.0 mi WNW 11.5 mph - N/A   Partly Cloudy
4:51 PM 102.0 °F 101.6 °F 57.9 °F 23% 29.76 in 10.0 mi West 11.5 mph 17.3 mph N/A   Partly Cloudy
5:51 PM 102.0 °F 101.1 °F 57.0 °F 22% 29.76 in 10.0 mi WSW 9.2 mph - N/A   Partly Cloudy
6:51 PM 100.9 °F 100.5 °F 57.9 °F 24% 29.75 in 10.0 mi West 9.2 mph - N/A   Partly Cloudy
7:51 PM 98.6 °F 97.6 °F 57.2 °F 25% 29.82 in 10.0 mi WSW 8.1 mph - N/A   Partly Cloudy
8:51 PM 96.8 °F 96.2 °F 59.0 °F 28% 29.84 in 10.0 mi SW 5.8 mph - N/A   Partly Cloudy
10:51 PM 95.0 °F 94.8 °F 60.1 °F 31% 29.81 in 10.0 mi West 5.8 mph - N/A   Scattered Clouds
11:51 PM 95.0 °F 94.0 °F 57.9 °F 29% 29.81 in 10.0 mi West 8.1 mph - N/A   Scattered Clouds